Terug naar catalogus

THOR ABLESTAR DEB

ActiefLEO
NORAD 357·DEBRIS·🇺🇸 United States

Gelanceerd Jun 29, 1961 vanaf Cape Canaveral Space Force Station

Loading…

Volgende Passages (komende 24 uur)

TLE

VersSource: Space-Track

Epoch: Sep 14, 2026, 14:41 UTC

1 00357U 61015DX  26257.61224605  .00000640  00000-0  41018-3 0  9993
2 00357  66.8099  20.9673 0009743 167.0201 193.1140 14.09716029308461

Volg THOR ABLESTAR DEB in realtime met AllMySat

Download on the App Store